Temperature
18 18 18 19 19 19 19 19 19 19 18 18 18 18 18 18 18 18 18 18 18 18 18 18 18 18 18 18 18 18 18 18 17 17 17 17 17 17 17 17 17 17 17
18 18 19 19 19 19 19 19 19 19 18 18 18 18 18 18 18 18 18 18 18 18 18 18 18 18 18 18 18 17 17 17 17 17 17 17 17 17 17 17 17 17 17
19 19 19 19 19 19 19 19 19 19 18 18 18 18 18 18 18 18 18 18 18 18 18 18 18 18 18 18 17 17 17 17 17 17 17 17 17 17 17 17 17 17 17
19 19 19 19 19 19 19 19 19 18 18 18 18 18 18 18 18 18 18 18 18 18 18 18 18 18 18 18 17 17 17 17 17 17 17 17 17 17 17 17 17 17 17
19 19 19 19 19 19 19 19 19 18 18 18 18 18 18 18 18 18 18 18 18 18 18 18 18 18 18 18 17 17 17 17 17 17 17 17 17 17 17 17 16 16 16
19 19 19 19 19 19 19 19 19 18 18 18 18 18 18 18 18 18 18 18 18 18 18 17 17 17 17 17 17 17 17 17 17 17 17 17 17 17 17 17 16 16 16
19 19 19 19 19 19 19 19 19 18 18 18 18 18 18 18 18 18 18 18 18 18 17 17 17 17 17 17 17 17 17 17 17 17 17 17 17 17 17 17 17 17 16
19 19 19 19 19 19 19 19 19 18 18 18 18 18 18 18 18 18 18 18 18 18 17 17 17 17 17 17 17 17 17 17 17 17 17 17 17 17 17 17 17 17 16
19 19 19 19 19 19 19 19 18 18 18 18 18 18 18 18 18 18 18 18 18 18 17 17 17 17 17 17 17 17 17 17 17 17 17 17 17 17 17 17 17 17 16
19 19 19 19 19 19 19 18 18 18 18 18 18 18 18 18 18 18 18 18 18 18 17 17 17 17 17 17 17 17 17 17 17 17 17 17 17 17 17 17 17 17 16
19 19 19 19 19 19 19 18 18 18 18 18 18 18 18 18 18 18 18 18 18 17 17 17 17 17 17 17 17 17 17 17 17 17 17 17 17 17 17 17 17 17 16
20 19 19 19 19 19 19 19 18 18 18 18 18 18 18 18 18 18 18 18 17 17 17 17 17 17 17 17 17 17 17 17 17 17 17 17 17 17 17 17 17 17 17
20 20 19 19 19 19 19 19 18 18 18 18 18 18 18 18 18 18 18 18 17 17 17 17 17 17 17 17 17 17 17 17 17 17 17 17 17 17 17 17 17 17 17
20 20 20 19 19 19 19 19 18 18 18 18 18 18 18 18 18 18 18 18 18 18 17 17 17 17 17 17 17 17 17 17 17 17 17 17 17 17 17 17 17 17 16
20 20 20 19 19 19 19 19 18 18 18 18 18 18 18 18 18 18 18 18 18 18 18 17 17 17 17 17 17 17 17 17 17 17 17 17 17 17 17 17 17 16 17
20 20 20 20 19 19 19 19 18 18 18 18 18 18 18 18 18 18 18 18 18 18 18 18 18 18 18 17 17 17 17 17 17 17 17 17 17 17 17 17 17 17 17
20 20 20 20 19 19 19 19 18 18 18 18 18 18 18 18 18 18 18 18 18 18 18 18 18 18 18 17 17 17 17 17 17 17 17 17 17 17 17 17 17 17 17
21 20 20 20 19 19 19 19 18 18 18 18 18 18 18 18 18 18 18 18 18 17 18 18 17 17 17 17 17 17 17 17 17 17 17 17 17 17 17 17 17 17 17
21 20 20 20 20 19 19 18 18 18 18 18 18 18 18 17 18 18 18 18 17 17 17 17 17 17 17 17 17 17 17 17 17 17 17 17 17 17 17 17 17 17 17
21 20 20 20 19 19 19 18 18 18 18 18 18 18 18 18 17 18 18 17 17 17 17 17 17 17 17 17 17 17 17 17 17 17 17 17 17 17 17 17 17 17 17
21 20 20 20 19 19 19 19 19 18 18 18 18 18 18 18 18 18 18 18 17 17 17 17 17 17 17 17 17 17 17 17 17 17 17 17 17 17 17 17 17 17 17
21 21 20 20 19 19 19 19 19 18 18 18 18 18 18 18 18 18 18 18 18 17 17 17 17 17 17 17 17 17 17 17 18 17 17 17 17 17 17 17 17 17 17
21 21 20 20 20 19 19 19 19 18 18 18 18 18 18 18 18 17 17 18 18 17 17 17 17 17 17 17 17 17 17 17 17 17 17 17 17 17 17 17 17 17 17
21 21 20 20 20 19 19 19 19 19 18 18 18 18 18 18 17 17 17 18 18 18 17 17 17 17 17 17 17 17 17 17 17 17 17 17 17 17 17 17 17 17 17
21 21 20 20 20 20 19 19 19 18 18 18 18 18 18 18 17 17 17 17 17 17 17 17 17 17 17 17 17 17 17 17 17 16 17 17 17 17 17 17 17 17 16
21 21 20 20 20 20 19 19 19 19 18 18 18 18 18 18 18 17 17 17 17 17 17 17 17 17 17 17 17 17 17 16 16 16 16 16 16 17 17 16 16 16 16
Wind_Speed
3 5 10 11 13 14 15 16 16 17 17 17 17 17 17 17 17 17 17 17 17 18 18 18 18 18 18 18 17 17 17 16 17 17 17 17 17 17 18 18 17 16 18
5 7 11 12 13 14 14 15 16 16 16 16 16 17 17 16 16 16 17 17 17 17 17 18 18 18 17 17 17 16 16 16 16 16 16 16 16 16 17 17 16 15 17
7 8 11 12 13 13 14 14 15 15 15 15 15 16 16 16 16 16 16 16 16 16 17 17 17 16 16 16 15 15 15 15 16 16 15 13 14 16 16 16 17 17 16
8 8 10 12 12 13 13 14 14 14 14 14 15 15 15 15 15 15 15 15 15 15 16 16 16 16 15 15 14 14 15 15 15 15 12 12 13 15 16 17 17 16 16
7 8 10 12 12 12 12 13 13 13 13 13 14 14 14 14 14 14 14 14 15 15 15 15 15 15 14 13 13 13 14 14 14 13 12 11 12 15 16 16 16 16 15
6 8 10 12 12 12 12 12 12 12 12 12 12 12 13 13 13 13 13 13 14 14 14 14 14 14 13 12 12 13 13 14 13 12 11 11 12 15 15 16 15 15 15
6 7 10 11 11 11 11 11 11 11 11 11 11 11 11 12 12 12 12 12 12 13 13 13 13 13 12 12 12 12 13 13 12 11 10 10 12 14 15 15 15 14 14
6 6 9 11 11 10 10 10 10 10 10 10 10 10 10 11 11 11 11 11 11 11 11 11 11 11 11 11 11 12 12 12 11 10 10 10 12 13 14 14 14 13 13
6 6 6 7 9 9 9 9 9 9 9 9 9 9 9 9 9 9 9 9 9 10 10 10 10 9 9 9 10 11 12 12 10 9 9 9 11 12 13 13 13 12 12
4 4 4 5 6 6 7 8 8 8 8 8 8 8 7 7 7 7 7 7 8 8 8 8 8 8 7 8 9 10 11 10 9 8 8 9 11 11 12 12 12 11 11
4 3 3 3 4 5 5 6 7 7 7 6 6 6 6 5 5 5 5 6 6 6 6 6 7 6 7 7 8 9 9 8 8 7 7 9 10 11 11 11 11 11 11
7 5 3 3 3 3 3 5 4 4 4 4 4 5 5 4 3 3 3 4 4 5 5 5 6 6 5 5 6 7 6 7 7 6 7 10 9 10 10 10 10 10 10
6 6 5 4 3 3 2 4 3 3 3 3 3 4 4 3 2 2 2 2 3 3 3 3 4 4 3 3 4 4 5 6 5 6 7 9 9 10 10 10 10 10 10
6 6 6 5 4 4 2 2 3 2 2 2 2 4 3 2 1 1 1 1 2 2 2 2 2 1 1 2 4 5 5 5 6 6 7 10 10 10 10 10 10 10 10
7 7 7 6 5 4 3 3 3 3 3 3 3 4 4 3 2 1 0 0 0 0 0 0 1 1 1 2 3 5 5 6 6 6 6 9 10 11 11 11 10 10 10
8 8 6 7 6 5 4 3 3 4 4 4 4 5 6 5 4 2 1 1 2 2 1 1 0 1 0 1 2 4 5 6 6 7 7 8 10 11 11 11 11 11 11
8 7 7 7 6 5 5 5 4 5 5 5 5 6 7 7 6 4 3 2 3 3 2 0 0 1 0 0 1 2 3 5 6 7 8 8 9 11 12 13 12 12 12
7 7 7 8 7 6 5 4 4 5 5 5 6 6 7 8 8 6 4 3 4 3 2 1 1 0 0 1 1 2 2 4 6 7 8 8 9 9 11 13 13 13 13
9 8 8 7 7 7 5 4 3 4 4 5 5 6 6 7 7 7 5 4 4 3 2 2 2 2 2 2 2 2 2 3 5 7 8 9 9 9 10 11 13 14 14
8 8 8 6 6 5 3 2 1 1 2 3 4 5 6 6 7 7 5 4 4 2 2 2 2 2 2 2 2 2 2 3 4 5 7 8 9 10 11 11 11 12 14
7 7 7 6 5 5 3 3 2 2 2 2 3 5 6 7 6 6 4 4 4 4 4 3 2 2 1 1 1 1 2 2 3 4 5 6 7 10 10 11 11 11 11
7 7 6 6 6 5 4 3 2 2 2 2 2 3 6 6 6 6 5 4 4 4 3 3 3 2 2 2 2 1 2 2 2 3 4 5 6 7 8 10 11 11 11
7 7 7 6 6 5 5 3 2 2 1 0 1 1 2 5 5 5 5 4 4 4 4 5 5 5 3 2 2 3 2 3 2 2 3 4 4 4 6 8 10 11 12
7 6 5 5 5 4 4 4 4 3 3 2 2 1 1 3 4 5 5 5 4 4 4 5 5 4 4 3 2 2 2 2 2 2 2 2 3 4 5 6 7 10 11
7 6 5 5 4 4 4 5 4 3 2 1 0 0 1 1 2 3 3 3 3 4 4 4 4 4 4 4 3 2 2 2 3 3 3 2 1 2 3 4 5 6 8
5 5 5 5 4 4 5 5 5 4 2 1 1 1 1 1 1 1 2 2 3 3 4 4 4 4 4 4 4 3 3 3 3 4 5 4 3 2 2 3 4 5 7
Wind_Direction
135 136 119 110 105 103 101 100 100 100 100 101 102 102 100 99 97 96 96 96 97 99 101 101 102 102 102 102 102 103 104 105 107 107 107 109 111 111 111 111 110 110 111
141 136 123 115 108 105 104 103 103 102 102 102 103 102 101 99 98 97 97 97 98 99 101 101 102 102 103 103 103 102 104 104 105 107 108 110 111 112 112 112 112 115 115
125 127 124 119 112 107 105 104 104 104 104 103 103 103 103 101 100 99 98 97 98 99 101 102 103 102 103 103 102 101 102 103 105 106 105 106 112 115 115 116 115 115 116
123 124 128 122 116 112 109 106 107 107 106 105 105 104 104 102 101 101 100 99 100 100 101 103 104 104 103 104 105 104 103 105 106 105 100 104 112 117 116 115 115 116 117
117 126 133 125 120 116 113 110 109 109 109 108 107 107 106 105 103 102 101 101 102 102 102 103 104 104 103 105 108 109 107 107 107 103 99 101 109 117 117 116 116 117 118
116 128 134 127 124 120 117 114 111 110 111 110 109 108 108 108 105 103 102 102 103 103 103 103 104 105 105 107 110 113 110 109 103 102 102 105 113 119 119 119 118 117 118
122 128 135 132 129 126 122 119 116 112 112 112 112 111 110 108 105 104 104 104 104 105 105 105 105 105 107 109 112 114 112 113 108 107 106 110 118 122 121 121 121 120 120
122 121 133 136 133 131 128 125 120 117 116 115 114 113 112 110 107 106 106 107 106 107 107 107 108 106 107 108 112 118 119 119 118 115 113 117 124 124 124 125 125 125 124
112 111 116 131 135 136 134 130 126 123 121 120 119 117 114 112 109 107 107 108 109 110 110 109 108 105 106 111 116 121 124 123 122 124 125 126 128 128 128 128 129 128 128
103 100 106 114 120 123 132 135 132 129 127 127 128 127 122 114 109 107 106 109 110 110 110 111 110 104 103 113 120 126 126 124 126 127 130 137 139 137 135 135 133 133 134
147 117 111 114 116 120 132 141 136 132 131 126 122 122 106 89 92 99 111 112 111 109 109 112 110 102 98 107 122 125 126 127 133 136 143 150 152 150 146 143 142 142 141
178 176 160 149 142 140 143 124 115 110 113 107 102 106 102 97 93 99 109 110 108 104 106 106 102 93 89 94 114 118 126 136 141 148 159 160 161 159 155 153 151 149 148
181 184 178 172 168 164 125 124 116 107 112 116 120 127 117 95 71 67 59 62 68 74 70 77 81 84 91 108 118 129 140 147 154 159 166 167 171 169 167 164 162 161 160
179 191 184 177 178 184 169 151 150 143 146 156 165 162 143 118 89 59 40 47 54 57 58 55 62 74 90 138 147 150 158 163 168 172 179 180 183 181 179 176 175 174 172
189 195 191 185 188 187 181 184 173 179 187 198 196 193 176 171 180 188 246 292 274 14 79 26 26 48 68 122 157 166 174 180 181 187 194 194 195 192 190 190 188 186 184
195 197 195 194 192 185 187 193 188 192 197 205 214 210 199 193 193 192 211 239 259 256 255 256 293 39 44 134 172 182 187 191 195 196 202 206 207 204 201 200 199 198 197
193 192 192 196 188 188 195 199 198 199 197 202 216 218 210 206 204 199 205 228 242 239 228 203 345 36 75 160 190 197 197 204 205 204 206 210 215 216 214 211 209 209 209
184 186 194 198 185 191 197 199 197 198 199 207 215 217 220 218 210 196 202 226 231 219 197 177 173 139 241 204 212 217 203 208 212 212 211 215 218 221 223 222 220 219 219
184 182 188 190 182 188 188 185 191 194 199 205 211 219 224 218 209 200 205 217 212 204 206 210 182 181 209 222 224 223 223 218 216 217 216 220 222 224 227 229 229 228 228
177 178 184 183 179 169 157 151 164 196 211 203 211 219 226 221 212 201 204 207 196 194 212 207 200 189 204 213 230 239 247 235 221 222 224 223 226 230 231 231 232 235 235
169 175 181 177 177 163 157 170 182 207 213 212 216 220 225 226 218 206 206 197 191 198 211 206 199 201 215 179 144 319 308 258 233 232 228 226 229 231 230 228 229 231 236
176 180 179 183 182 183 180 175 176 178 205 214 223 224 224 223 218 216 210 204 198 194 206 206 192 192 220 182 163 148 315 319 284 240 225 228 236 231 229 229 228 228 232
180 184 186 185 185 188 175 144 114 90 56 73 245 241 233 227 221 217 213 210 200 195 207 212 201 197 210 207 183 166 180 239 287 289 239 231 230 227 231 229 229 231 231
187 181 180 177 178 178 168 163 166 179 202 216 212 222 251 232 225 224 221 219 210 205 212 220 208 205 198 214 209 205 204 184 202 284 291 251 231 235 236 234 234 234 232
173 169 174 170 174 171 171 174 173 191 210 210 167 233 260 265 239 235 229 223 217 213 219 223 209 207 208 211 208 195 204 216 213 218 262 276 260 248 240 239 240 238 235
156 159 164 168 178 175 175 174 179 193 194 181 213 246 267 275 279 263 227 219 218 217 221 225 216 209 214 220 220 211 199 200 207 209 232 250 260 265 255 245 238 239 236
Height
1530 1531 1532 1533 1533 1534 1534 1534 1534 1535 1535 1536 1536 1536 1536 1537 1537 1538 1538 1538 1539 1540 1540 1541 1542 1543 1544 1545 1546 1547 1548 1549 1550 1551 1552 1554 1555 1557 1558 1559 1561 1562 1563
1531 1532 1534 1535 1535 1536 1536 1537 1537 1537 1538 1538 1539 1539 1539 1540 1540 1541 1541 1542 1542 1543 1543 1544 1545 1546 1547 1548 1549 1550 1551 1552 1553 1554 1555 1556 1558 1559 1560 1561 1563 1564 1566
1533 1534 1536 1537 1537 1538 1538 1539 1540 1540 1540 1541 1541 1542 1542 1543 1543 1544 1544 1545 1545 1546 1546 1547 1548 1549 1550 1551 1552 1553 1554 1554 1555 1556 1557 1558 1560 1561 1562 1564 1565 1566 1568
1534 1536 1537 1539 1539 1540 1541 1541 1542 1543 1543 1544 1544 1545 1545 1546 1546 1547 1547 1547 1548 1548 1549 1550 1550 1551 1552 1554 1555 1556 1556 1557 1558 1558 1559 1561 1562 1563 1564 1566 1567 1569 1570
1536 1538 1540 1541 1542 1542 1543 1544 1544 1545 1546 1546 1547 1547 1548 1548 1549 1549 1550 1550 1551 1551 1552 1553 1553 1554 1555 1556 1557 1558 1559 1559 1560 1561 1562 1563 1564 1565 1567 1568 1569 1571 1573
1538 1540 1542 1543 1544 1545 1545 1546 1547 1547 1548 1549 1549 1550 1551 1551 1552 1552 1552 1553 1553 1554 1555 1556 1556 1557 1558 1559 1560 1560 1561 1562 1562 1563 1564 1565 1566 1568 1569 1570 1572 1573 1575
1540 1542 1544 1545 1546 1547 1547 1548 1549 1550 1550 1551 1552 1552 1553 1554 1554 1555 1555 1555 1556 1557 1558 1558 1559 1560 1561 1562 1562 1563 1563 1564 1565 1566 1567 1568 1569 1570 1571 1572 1574 1575 1576
1542 1544 1545 1547 1548 1549 1549 1550 1551 1552 1553 1553 1554 1555 1555 1556 1556 1557 1557 1558 1559 1559 1560 1561 1562 1563 1564 1564 1565 1565 1566 1566 1567 1568 1569 1570 1571 1572 1573 1574 1576 1577 1578
1545 1546 1547 1549 1550 1551 1552 1552 1553 1554 1555 1556 1556 1557 1557 1558 1559 1559 1560 1560 1561 1562 1563 1564 1565 1565 1566 1567 1567 1568 1568 1569 1569 1570 1571 1572 1573 1574 1575 1576 1578 1579 1580
1546 1548 1549 1550 1551 1552 1553 1554 1555 1556 1557 1558 1558 1559 1559 1560 1561 1561 1562 1563 1563 1564 1565 1566 1567 1568 1568 1569 1569 1570 1570 1571 1571 1572 1573 1574 1575 1576 1577 1578 1579 1580 1581
1547 1549 1550 1552 1553 1554 1555 1556 1557 1558 1559 1559 1560 1561 1561 1562 1563 1563 1564 1565 1566 1566 1567 1568 1569 1570 1570 1571 1571 1572 1572 1573 1573 1574 1574 1575 1576 1577 1578 1579 1580 1581 1582
1548 1550 1552 1553 1554 1556 1557 1558 1559 1560 1560 1561 1562 1563 1563 1564 1565 1565 1566 1567 1568 1568 1569 1570 1571 1572 1572 1573 1573 1574 1574 1574 1575 1575 1576 1577 1577 1578 1579 1580 1581 1582 1583
1549 1551 1552 1554 1556 1557 1558 1559 1560 1561 1562 1563 1563 1564 1565 1566 1566 1567 1568 1568 1569 1570 1571 1572 1573 1573 1574 1575 1575 1575 1575 1576 1576 1577 1577 1578 1579 1580 1580 1581 1582 1583 1584
1550 1552 1554 1555 1557 1558 1559 1560 1561 1562 1563 1564 1565 1566 1566 1567 1568 1568 1569 1570 1571 1572 1572 1573 1574 1575 1575 1576 1576 1577 1577 1577 1577 1578 1578 1579 1580 1580 1581 1582 1583 1584 1585
1551 1553 1554 1556 1557 1558 1560 1561 1562 1563 1564 1565 1566 1567 1567 1568 1569 1569 1570 1571 1572 1573 1573 1574 1575 1576 1576 1577 1577 1577 1578 1578 1578 1579 1579 1580 1580 1581 1582 1582 1583 1584 1585
1551 1553 1555 1556 1557 1559 1560 1562 1563 1564 1565 1566 1566 1567 1568 1569 1569 1570 1571 1572 1573 1573 1574 1575 1575 1576 1577 1577 1577 1578 1578 1579 1579 1579 1580 1580 1581 1581 1582 1582 1583 1584 1584
1551 1553 1555 1556 1558 1559 1560 1562 1563 1564 1565 1566 1566 1567 1568 1569 1569 1570 1571 1572 1573 1574 1574 1575 1576 1576 1576 1577 1577 1578 1578 1579 1579 1579 1580 1580 1581 1581 1582 1582 1583 1583 1584
1551 1553 1555 1556 1557 1559 1560 1561 1562 1564 1565 1565 1566 1567 1568 1568 1569 1570 1570 1571 1572 1573 1574 1574 1575 1575 1576 1576 1577 1577 1578 1578 1578 1579 1579 1580 1580 1581 1581 1581 1582 1582 1583
1551 1553 1554 1555 1557 1558 1560 1561 1562 1563 1564 1565 1565 1566 1567 1567 1568 1569 1569 1571 1572 1573 1573 1574 1574 1575 1575 1576 1576 1576 1577 1577 1577 1578 1578 1578 1579 1579 1580 1580 1581 1581 1582
1550 1552 1553 1555 1556 1558 1559 1560 1561 1562 1563 1563 1564 1564 1565 1566 1567 1567 1568 1569 1570 1571 1572 1573 1573 1574 1574 1575 1575 1575 1575 1575 1575 1576 1576 1577 1577 1577 1578 1579 1579 1579 1580
1549 1551 1552 1554 1555 1556 1558 1559 1559 1560 1561 1561 1562 1563 1563 1564 1565 1566 1566 1568 1569 1569 1570 1571 1572 1572 1573 1573 1573 1573 1573 1573 1573 1573 1574 1574 1575 1575 1576 1576 1577 1577 1577
1547 1549 1551 1552 1554 1555 1557 1557 1558 1559 1559 1560 1560 1560 1561 1562 1563 1564 1565 1566 1567 1568 1568 1569 1570 1570 1570 1571 1571 1571 1571 1571 1570 1571 1571 1572 1572 1573 1573 1573 1574 1574 1574
1545 1547 1549 1551 1553 1554 1555 1556 1557 1558 1558 1558 1559 1559 1560 1561 1561 1562 1563 1564 1565 1565 1566 1567 1568 1568 1568 1569 1569 1570 1569 1568 1568 1569 1569 1569 1570 1570 1570 1570 1570 1571 1571
1543 1546 1548 1549 1551 1553 1554 1555 1555 1556 1556 1557 1557 1558 1559 1559 1560 1561 1562 1562 1563 1563 1564 1564 1565 1565 1566 1566 1566 1567 1568 1567 1567 1566 1566 1566 1567 1567 1567 1567 1567 1567 1568
1542 1544 1547 1548 1550 1551 1552 1553 1554 1554 1555 1556 1556 1556 1557 1558 1558 1559 1560 1560 1560 1561 1561 1562 1562 1562 1563 1563 1563 1564 1564 1564 1564 1564 1563 1563 1563 1564 1563 1563 1563 1564 1564
1541 1543 1545 1547 1548 1549 1551 1552 1552 1553 1554 1554 1555 1555 1556 1556 1556 1557 1557 1558 1558 1558 1558 1559 1559 1559 1559 1560 1560 1561 1560 1560 1560 1560 1560 1560 1559 1560 1560 1560 1560 1560 1560